User: anonymous   Login
Location: Unspecified
(0.0000°N, 0.0000°E)
Time: 13:46:22
(UTC+00:00)
Language:

GONETS M 12 (M22) - Orbit

View from above orbital plane
View from above orbital plane
View from above satellite
View from above satellite

Ground track
Ground track

The orbit data is extracted from the following two-line orbital elements,

1 40553U 15020B   17324.19657175  .00000026  00000-0  11683-3 0  9993
2 40553  82.4901 182.0330 0014502 338.3287  21.7184 12.42869633119824
Epoch (UTC): 20 November 2017 04:43:03
Eccentricity: 0.0014502
inclination: 82.4901°
perigee height: 1483 km
apogee height: 1506 km
right ascension of ascending node: 182.0330°
argument of perigee: 338.3287°
revolutions per day: 12.42869633
mean anomaly at epoch: 21.7184°
orbit number at epoch: 11982

The dashed part of the orbit path shows where the satellite is in the earth's shadow,  

DLR